QFA450 YMML-YSSY

Flight info

Callsign QFA450
Flight time 1h 9m
Altitude 37000
Route ML H129 DOSEL Y59 RIVET
Aircraft A21N/M-SDE3FGHIRWY/LB1

Departure

Time 2026-04-20 04:24
Airport Melbourne Airport (YMML)

Arrival

Time 2026-04-20 05:33
Airport Sydney Kingsford Smith International Airport (YSSY)
Time Latitude Longitude Altitude Speed Heading
2026-04-20 03:47 -37.66734 144.85156 442 ft 0 kts 81°
2026-04-20 04:15 -37.66735 144.85143 442 ft 2 kts 83°
2026-04-20 04:15 -37.66737 144.85124 442 ft 2 kts 81°
2026-04-20 04:15 -37.66742 144.85106 442 ft 2 kts 49°
2026-04-20 04:15 -37.66754 144.85094 442 ft 2 kts 21°
2026-04-20 04:16 -37.66768 144.85091 442 ft 2 kts 358°
2026-04-20 04:16 -37.66783 144.85091 442 ft 2 kts
2026-04-20 04:16 -37.66798 144.85088 442 ft 2 kts
2026-04-20 04:16 -37.66803 144.85088 442 ft 0 kts
2026-04-20 04:19 -37.66798 144.85088 442 ft 1 kts
2026-04-20 04:19 -37.66783 144.85089 442 ft 2 kts
2026-04-20 04:19 -37.66758 144.85091 442 ft 5 kts
2026-04-20 04:20 -37.66710 144.85086 442 ft 8 kts 353°
2026-04-20 04:20 -37.66641 144.85074 442 ft 11 kts 351°
2026-04-20 04:20 -37.66561 144.85060 442 ft 11 kts 352°
2026-04-20 04:20 -37.66476 144.85039 442 ft 12 kts 334°
2026-04-20 04:21 -37.66407 144.84972 442 ft 13 kts 321°
2026-04-20 04:21 -37.66358 144.84923 442 ft 0 kts 321°
2026-04-20 04:22 -37.66354 144.84918 442 ft 1 kts 321°
2026-04-20 04:22 -37.66338 144.84903 442 ft 4 kts 321°
2026-04-20 04:22 -37.66302 144.84868 442 ft 12 kts 321°
2026-04-20 04:22 -37.66231 144.84775 442 ft 15 kts 294°
2026-04-20 04:23 -37.66217 144.84636 442 ft 23 kts 274°
2026-04-20 04:23 -37.66188 144.84091 442 ft 97 kts 274°
2026-04-20 04:23 -37.66116 144.82971 443 ft 156 kts 272°
2026-04-20 04:23 -37.66050 144.81528 860 ft 167 kts 271°
2026-04-20 04:24 -37.65987 144.80116 1549 ft 163 kts 271°
2026-04-20 04:24 -37.65918 144.78693 2216 ft 162 kts 272°
2026-04-20 04:24 -37.65843 144.77290 2708 ft 164 kts 274°
2026-04-20 04:24 -37.65758 144.75845 3116 ft 172 kts 275°
2026-04-20 04:25 -37.65658 144.74303 3519 ft 182 kts 275°
2026-04-20 04:25 -37.65543 144.72679 3977 ft 191 kts 276°
2026-04-20 04:25 -37.65414 144.71004 4495 ft 197 kts 276°
2026-04-20 04:25 -37.65284 144.69275 5047 ft 202 kts 276°
2026-04-20 04:26 -37.65135 144.67467 5509 ft 214 kts 281°
2026-04-20 04:26 -37.64449 144.65745 5887 ft 232 kts 313°
2026-04-20 04:26 -37.63049 144.64633 6269 ft 251 kts 339°
2026-04-20 04:26 -37.61323 144.63979 6836 ft 263 kts 342°
2026-04-20 04:27 -37.59531 144.63384 7414 ft 274 kts 343°
2026-04-20 04:27 -37.57674 144.62750 8100 ft 280 kts 342°
2026-04-20 04:27 -37.55764 144.62238 8841 ft 285 kts 357°
2026-04-20 04:27 -37.53811 144.62767 9500 ft 294 kts 25°
2026-04-20 04:28 -37.52234 144.64363 10171 ft 299 kts 50°
2026-04-20 04:28 -37.50962 144.66505 10667 ft 311 kts 53°
2026-04-20 04:28 -37.49669 144.68744 11109 ft 324 kts 53°
2026-04-20 04:28 -37.48321 144.71048 11724 ft 329 kts 54°
2026-04-20 04:29 -37.47041 144.73453 12379 ft 333 kts 58°
2026-04-20 04:29 -37.45869 144.75958 13015 ft 337 kts 60°
2026-04-20 04:29 -37.44700 144.78519 13641 ft 341 kts 60°
2026-04-20 04:29 -37.43508 144.81134 14259 ft 345 kts 60°
2026-04-20 04:30 -37.42320 144.83733 14892 ft 348 kts 60°
2026-04-20 04:30 -37.41113 144.86366 15491 ft 351 kts 61°
2026-04-20 04:30 -37.39885 144.89044 16092 ft 354 kts 61°
2026-04-20 04:30 -37.38660 144.91710 16636 ft 358 kts 61°
2026-04-20 04:31 -37.37410 144.94429 17211 ft 361 kts 61°
2026-04-20 04:31 -37.36163 144.97137 17764 ft 364 kts 62°
2026-04-20 04:31 -37.34882 144.99919 18312 ft 367 kts 62°
2026-04-20 04:31 -37.33606 145.02683 18832 ft 370 kts 62°
2026-04-20 04:32 -37.32299 145.05512 19335 ft 373 kts 62°
2026-04-20 04:32 -37.31005 145.08315 19858 ft 375 kts 62°
2026-04-20 04:32 -37.29687 145.11165 20374 ft 378 kts 62°
2026-04-20 04:32 -37.28383 145.13982 20863 ft 380 kts 63°
2026-04-20 04:33 -37.27049 145.16862 21348 ft 383 kts 63°
2026-04-20 04:33 -37.25705 145.19760 21822 ft 386 kts 63°
2026-04-20 04:33 -37.24348 145.22685 22282 ft 388 kts 63°
2026-04-20 04:33 -37.22989 145.25607 22722 ft 391 kts 63°
2026-04-20 04:34 -37.21624 145.28546 23168 ft 394 kts 63°
2026-04-20 04:34 -37.20241 145.31516 23625 ft 396 kts 63°
2026-04-20 04:34 -37.18849 145.34506 24067 ft 398 kts 63°
2026-04-20 04:34 -37.17461 145.37482 24486 ft 401 kts 63°
2026-04-20 04:35 -37.15975 145.40437 24886 ft 405 kts 59°
2026-04-20 04:35 -37.14350 145.43327 25284 ft 408 kts 58°
2026-04-20 04:35 -37.12682 145.46236 25668 ft 411 kts 58°
2026-04-20 04:35 -37.10989 145.49176 26051 ft 414 kts 58°
2026-04-20 04:36 -37.07614 145.55039 26770 ft 419 kts 58°
2026-04-20 04:36 -37.05917 145.57988 27119 ft 422 kts 58°
2026-04-20 04:36 -37.04198 145.60974 27469 ft 424 kts 58°
2026-04-20 04:37 -37.02463 145.63985 27808 ft 427 kts 58°
2026-04-20 04:37 -37.00722 145.67001 28173 ft 429 kts 58°
2026-04-20 04:37 -36.98993 145.69997 28533 ft 430 kts 58°
2026-04-20 04:37 -36.97242 145.73030 28873 ft 433 kts 58°
2026-04-20 04:38 -36.95464 145.76102 29201 ft 435 kts 58°
2026-04-20 04:38 -36.93696 145.79158 29527 ft 438 kts 58°
2026-04-20 04:38 -36.91919 145.82228 29846 ft 440 kts 58°
2026-04-20 04:38 -36.90113 145.85342 30182 ft 442 kts 58°
2026-04-20 04:39 -36.88303 145.88460 30491 ft 444 kts 58°
2026-04-20 04:39 -36.86507 145.91554 30787 ft 446 kts 58°
2026-04-20 04:39 -36.84669 145.94714 31092 ft 448 kts 58°
2026-04-20 04:39 -36.82850 145.97842 31387 ft 450 kts 58°
2026-04-20 04:40 -36.81003 146.01015 31665 ft 452 kts 58°
2026-04-20 04:40 -36.79285 146.03963 31919 ft 454 kts 58°
2026-04-20 04:40 -36.79243 146.04034 31925 ft 454 kts 58°
2026-04-20 04:40 -36.77375 146.07236 32190 ft 456 kts 58°
2026-04-20 04:41 -36.75529 146.10394 32436 ft 459 kts 58°
2026-04-20 04:41 -36.73643 146.13619 32709 ft 460 kts 58°
2026-04-20 04:41 -36.71749 146.16855 32975 ft 462 kts 59°
2026-04-20 04:41 -36.69847 146.20103 33215 ft 464 kts 59°
2026-04-20 04:42 -36.67965 146.23314 33460 ft 466 kts 59°
2026-04-20 04:42 -36.66050 146.26578 33712 ft 468 kts 59°
2026-04-20 04:42 -36.64126 146.29851 33952 ft 469 kts 59°
2026-04-20 04:42 -36.62215 146.33101 34233 ft 470 kts 59°
2026-04-20 04:43 -36.60289 146.36374 34592 ft 469 kts 59°
2026-04-20 04:43 -36.58358 146.39651 34957 ft 468 kts 59°
2026-04-20 04:43 -36.56449 146.42889 35299 ft 467 kts 59°
2026-04-20 04:43 -36.54519 146.46158 35614 ft 467 kts 59°
2026-04-20 04:44 -36.52595 146.49414 35872 ft 468 kts 59°
2026-04-20 04:44 -36.50669 146.52672 36100 ft 469 kts 59°
2026-04-20 04:44 -36.48751 146.55916 36318 ft 470 kts 59°
2026-04-20 04:44 -36.46811 146.59187 36519 ft 471 kts 59°
2026-04-20 04:45 -36.44861 146.62476 36727 ft 472 kts 59°
2026-04-20 04:45 -36.42919 146.65747 36910 ft 474 kts 58°
2026-04-20 04:45 -36.40968 146.69032 37069 ft 475 kts 58°
2026-04-20 04:45 -36.39001 146.72340 37243 ft 476 kts 58°
2026-04-20 04:46 -36.37047 146.75623 37270 ft 477 kts 58°
2026-04-20 04:46 -36.33105 146.82227 37279 ft 477 kts 58°
2026-04-20 04:47 -36.29176 146.88805 37270 ft 477 kts 59°
2026-04-20 04:47 -36.25232 146.95395 37268 ft 477 kts 59°
2026-04-20 04:48 -36.21285 147.01976 37257 ft 476 kts 59°
2026-04-20 04:48 -36.17329 147.08560 37255 ft 476 kts 59°
2026-04-20 04:49 -36.13371 147.15137 37257 ft 477 kts 59°
2026-04-20 04:49 -36.09433 147.21666 37264 ft 477 kts 59°
2026-04-20 04:50 -36.05447 147.28258 37270 ft 477 kts 59°
2026-04-20 04:50 -36.01500 147.34775 37268 ft 476 kts 59°
2026-04-20 04:51 -35.97527 147.41325 37259 ft 476 kts 59°
2026-04-20 04:51 -35.93582 147.47816 37257 ft 476 kts 59°
2026-04-20 04:52 -35.89593 147.54367 37256 ft 476 kts 59°
2026-04-20 04:52 -35.85607 147.60896 37255 ft 476 kts 59°
2026-04-20 04:53 -35.81644 147.67380 37256 ft 477 kts 58°
2026-04-20 04:53 -35.77672 147.73865 37250 ft 477 kts 59°
2026-04-20 04:54 -35.73666 147.80396 37256 ft 477 kts 59°
2026-04-20 04:54 -35.69662 147.86908 37247 ft 477 kts 59°
2026-04-20 04:55 -35.65672 147.93385 37249 ft 478 kts 59°
2026-04-20 04:55 -35.61661 147.99884 37242 ft 477 kts 59°
2026-04-20 04:56 -35.57677 148.06329 37248 ft 477 kts 59°
2026-04-20 04:56 -35.53654 148.12826 37254 ft 477 kts 59°
2026-04-20 04:57 -35.49657 148.19266 37253 ft 477 kts 59°
2026-04-20 04:57 -35.45653 148.25707 37253 ft 477 kts 59°
2026-04-20 04:58 -35.41613 148.32193 37257 ft 477 kts 59°
2026-04-20 04:58 -35.37602 148.38620 37271 ft 477 kts 59°
2026-04-20 04:59 -35.33584 148.45047 37278 ft 477 kts 59°
2026-04-20 04:59 -35.29554 148.51480 37283 ft 477 kts 59°
2026-04-20 05:00 -35.25505 148.57930 37288 ft 477 kts 59°
2026-04-20 05:00 -35.21468 148.64352 37289 ft 477 kts 59°
2026-04-20 05:01 -35.17403 148.70808 37289 ft 477 kts 59°
2026-04-20 05:01 -35.13361 148.77216 37288 ft 477 kts 59°
2026-04-20 05:02 -35.09333 148.83585 37284 ft 478 kts 59°
2026-04-20 05:02 -35.05265 148.90008 37282 ft 477 kts 59°
2026-04-20 05:03 -35.01182 148.96446 37279 ft 478 kts 59°
2026-04-20 05:03 -34.97136 149.02809 37283 ft 477 kts 59°
2026-04-20 05:04 -34.93065 149.09204 37274 ft 476 kts 58°
2026-04-20 05:04 -34.91054 149.12358 37103 ft 473 kts 59°
2026-04-20 05:04 -34.89040 149.15511 36219 ft 474 kts 58°
2026-04-20 05:04 -34.87000 149.18706 34731 ft 480 kts 58°
2026-04-20 05:05 -34.84976 149.21883 33083 ft 487 kts 58°
2026-04-20 05:05 -34.82921 149.25102 31847 ft 486 kts 58°
2026-04-20 05:05 -34.80857 149.28317 31440 ft 474 kts 58°
2026-04-20 05:05 -34.78855 149.31422 31121 ft 461 kts 58°
2026-04-20 05:06 -34.76891 149.34473 30730 ft 451 kts 58°
2026-04-20 05:06 -34.75055 149.37459 30309 ft 441 kts 61°
2026-04-20 05:06 -34.73383 149.40552 29878 ft 432 kts 65°
2026-04-20 05:06 -34.71919 149.43683 29439 ft 426 kts 68°
2026-04-20 05:07 -34.70539 149.46855 29010 ft 422 kts 69°
2026-04-20 05:07 -34.69198 149.49962 28585 ft 419 kts 68°
2026-04-20 05:07 -34.67845 149.53087 28155 ft 415 kts 68°
2026-04-20 05:07 -34.66517 149.56142 27729 ft 412 kts 68°
2026-04-20 05:08 -34.65175 149.59221 27298 ft 409 kts 68°
2026-04-20 05:08 -34.63845 149.62267 26869 ft 407 kts 68°
2026-04-20 05:08 -34.62543 149.65240 26447 ft 404 kts 67°
2026-04-20 05:08 -34.61223 149.68254 26012 ft 401 kts 67°
2026-04-20 05:09 -34.59922 149.71222 25586 ft 399 kts 67°
2026-04-20 05:09 -34.58617 149.74194 25158 ft 396 kts 67°
2026-04-20 05:09 -34.57339 149.77106 24735 ft 394 kts 67°
2026-04-20 05:09 -34.56044 149.80048 24302 ft 392 kts 66°
2026-04-20 05:10 -34.54781 149.82919 23884 ft 389 kts 66°
2026-04-20 05:10 -34.53503 149.85817 23461 ft 386 kts 66°
2026-04-20 05:10 -34.52241 149.88680 23034 ft 384 kts 66°
2026-04-20 05:10 -34.50992 149.91509 22615 ft 382 kts 66°
2026-04-20 05:11 -34.49758 149.94302 22198 ft 379 kts 66°
2026-04-20 05:11 -34.48514 149.97119 21779 ft 377 kts 66°
2026-04-20 05:11 -34.47279 149.99910 21358 ft 374 kts 66°
2026-04-20 05:11 -34.46065 150.02653 20951 ft 372 kts 66°
2026-04-20 05:12 -34.44835 150.05429 20536 ft 370 kts 66°
2026-04-20 05:12 -34.43623 150.08164 20102 ft 368 kts 66°
2026-04-20 05:12 -34.42426 150.10860 19690 ft 366 kts 66°
2026-04-20 05:12 -34.41225 150.13565 19278 ft 364 kts 66°
2026-04-20 05:13 -34.40032 150.16248 18862 ft 362 kts 65°
2026-04-20 05:13 -34.38842 150.18919 18432 ft 360 kts 66°
2026-04-20 05:13 -34.37668 150.21556 18017 ft 358 kts 65°
2026-04-20 05:13 -34.36486 150.24210 17606 ft 357 kts 65°
2026-04-20 05:14 -34.35318 150.26831 17205 ft 355 kts 65°
2026-04-20 05:14 -34.34153 150.29440 16777 ft 353 kts 65°
2026-04-20 05:14 -34.32977 150.32072 16373 ft 351 kts 65°
2026-04-20 05:14 -34.31831 150.34634 15980 ft 350 kts 65°
2026-04-20 05:15 -34.30667 150.37236 15550 ft 348 kts 65°
2026-04-20 05:15 -34.29533 150.39772 15121 ft 347 kts 65°
2026-04-20 05:15 -34.28383 150.42340 14695 ft 345 kts 65°
2026-04-20 05:15 -34.27243 150.44882 14282 ft 343 kts 65°
2026-04-20 05:16 -34.26115 150.47411 13886 ft 341 kts 65°
2026-04-20 05:16 -34.24998 150.49911 13483 ft 340 kts 65°
2026-04-20 05:16 -34.23884 150.52400 13074 ft 338 kts 65°
2026-04-20 05:16 -34.22761 150.54909 12654 ft 336 kts 65°
2026-04-20 05:17 -34.21663 150.57358 12253 ft 332 kts 65°
2026-04-20 05:17 -34.20566 150.59801 11843 ft 327 kts 65°
2026-04-20 05:17 -34.19499 150.62178 11456 ft 323 kts 65°
2026-04-20 05:17 -34.18442 150.64533 11080 ft 319 kts 65°
2026-04-20 05:18 -34.17386 150.66882 10748 ft 313 kts 65°
2026-04-20 05:18 -34.16359 150.69165 10412 ft 305 kts 65°
2026-04-20 05:18 -34.15372 150.71358 10126 ft 294 kts 65°
2026-04-20 05:18 -34.14406 150.73496 9978 ft 285 kts 65°
2026-04-20 05:19 -34.13469 150.75577 9629 ft 285 kts 65°
2026-04-20 05:19 -34.12527 150.77669 9282 ft 284 kts 65°
2026-04-20 05:19 -34.11576 150.79781 8931 ft 283 kts 65°
2026-04-20 05:19 -34.10640 150.81859 8532 ft 285 kts 65°
2026-04-20 05:20 -34.09674 150.84010 7766 ft 299 kts 65°
2026-04-20 05:20 -34.08704 150.86166 7658 ft 289 kts 65°
2026-04-20 05:20 -34.07738 150.88306 7679 ft 291 kts 65°
2026-04-20 05:20 -34.06765 150.90468 7688 ft 291 kts 65°
2026-04-20 05:21 -34.05808 150.92590 7705 ft 290 kts 65°
2026-04-20 05:21 -34.04843 150.94728 7722 ft 289 kts 65°
2026-04-20 05:21 -34.03889 150.96843 7704 ft 288 kts 65°
2026-04-20 05:21 -34.02926 150.98973 7536 ft 288 kts 65°
2026-04-20 05:22 -34.01878 151.01042 7349 ft 292 kts 52°
2026-04-20 05:22 -34.00283 151.02518 7168 ft 295 kts 25°
2026-04-20 05:22 -33.98270 151.03136 6832 ft 296 kts
2026-04-20 05:22 -33.96249 151.03357 6463 ft 294 kts
2026-04-20 05:23 -33.94199 151.03519 6081 ft 291 kts
2026-04-20 05:23 -33.92246 151.03659 5969 ft 272 kts
2026-04-20 05:23 -33.90351 151.03795 5970 ft 268 kts
2026-04-20 05:23 -33.88484 151.03929 5967 ft 267 kts
2026-04-20 05:24 -33.86620 151.04060 5969 ft 267 kts
2026-04-20 05:24 -33.84750 151.04185 5961 ft 268 kts
2026-04-20 05:24 -33.82891 151.04305 5631 ft 269 kts
2026-04-20 05:24 -33.81026 151.04411 5261 ft 266 kts
2026-04-20 05:25 -33.79175 151.04507 4861 ft 266 kts
2026-04-20 05:25 -33.77321 151.04597 4447 ft 265 kts
2026-04-20 05:25 -33.75489 151.04695 4065 ft 262 kts
2026-04-20 05:25 -33.73727 151.05129 3973 ft 257 kts 13°
2026-04-20 05:26 -33.71936 151.05249 3968 ft 260 kts 357°
2026-04-20 05:26 -33.70132 151.05041 3964 ft 260 kts 355°
2026-04-20 05:26 -33.68329 151.05203 3949 ft 257 kts 21°
2026-04-20 05:26 -33.66867 151.06314 3890 ft 250 kts 52°
2026-04-20 05:27 -33.66067 151.08121 3766 ft 241 kts 83°
2026-04-20 05:27 -33.66162 151.10062 3646 ft 232 kts 114°
2026-04-20 05:27 -33.67081 151.11595 3522 ft 226 kts 145°
2026-04-20 05:27 -33.68489 151.12251 3381 ft 220 kts 176°
2026-04-20 05:28 -33.70015 151.12058 3217 ft 217 kts 190°
2026-04-20 05:28 -33.71490 151.11845 3041 ft 213 kts 178°
2026-04-20 05:28 -33.72971 151.12010 2978 ft 212 kts 170°
2026-04-20 05:28 -33.74400 151.12329 2966 ft 204 kts 167°
2026-04-20 05:29 -33.75782 151.12683 2964 ft 201 kts 167°
2026-04-20 05:29 -33.77156 151.13046 2967 ft 200 kts 167°
2026-04-20 05:29 -33.78480 151.13394 2845 ft 193 kts 167°
2026-04-20 05:29 -33.79788 151.13737 2595 ft 191 kts 167°
2026-04-20 05:30 -33.81076 151.14073 2335 ft 186 kts 167°
2026-04-20 05:30 -33.82321 151.14398 2106 ft 175 kts 167°
2026-04-20 05:30 -33.83452 151.14693 1941 ft 161 kts 167°
2026-04-20 05:30 -33.84516 151.14969 1698 ft 148 kts 167°
2026-04-20 05:31 -33.85456 151.15213 1506 ft 134 kts 167°
2026-04-20 05:31 -33.86374 151.15453 1325 ft 133 kts 167°
2026-04-20 05:31 -33.87283 151.15689 1150 ft 133 kts 168°
2026-04-20 05:31 -33.88182 151.15922 996 ft 133 kts 168°
2026-04-20 05:32 -33.89094 151.16159 830 ft 134 kts 168°
2026-04-20 05:32 -33.90001 151.16391 617 ft 132 kts 169°
2026-04-20 05:32 -33.90900 151.16628 444 ft 133 kts 169°
2026-04-20 05:32 -33.91800 151.16866 261 ft 133 kts 169°
2026-04-20 05:33 -33.92713 151.17099 113 ft 132 kts 169°
2026-04-20 05:33 -33.93602 151.17333 30 ft 125 kts 169°
2026-04-20 05:33 -33.94331 151.17516 28 ft 82 kts 165°
2026-04-20 05:33 -33.94722 151.17619 28 ft 30 kts 167°
2026-04-20 05:34 -33.94862 151.17658 28 ft 28 kts 167°
2026-04-20 05:34 -33.95049 151.17706 28 ft 26 kts 169°
2026-04-20 05:34 -33.95151 151.17844 28 ft 7 kts 77°
2026-04-20 05:35 -33.95142 151.17892 28 ft 4 kts 78°
2026-04-20 05:35 -33.95141 151.17899 28 ft 0 kts 78°
2026-04-20 05:36 -33.95136 151.17920 28 ft 3 kts 73°
2026-04-20 05:36 -33.95113 151.17946 28 ft 6 kts 12°
2026-04-20 05:36 -33.95064 151.17937 28 ft 8 kts 348°
2026-04-20 05:36 -33.94992 151.17918 28 ft 13 kts 348°
2026-04-20 05:37 -33.94876 151.17888 28 ft 20 kts 347°
2026-04-20 05:37 -33.94732 151.17850 28 ft 21 kts 347°
2026-04-20 05:37 -33.94590 151.17812 28 ft 20 kts 348°
2026-04-20 05:37 -33.94450 151.17775 28 ft 20 kts 346°
2026-04-20 05:38 -33.94311 151.17734 28 ft 20 kts 346°
2026-04-20 05:38 -33.94188 151.17696 28 ft 14 kts 345°
2026-04-20 05:38 -33.94087 151.17664 28 ft 15 kts 345°
2026-04-20 05:38 -33.93984 151.17633 28 ft 15 kts 348°
2026-04-20 05:39 -33.93872 151.17604 28 ft 16 kts 349°
2026-04-20 05:39 -33.93752 151.17577 28 ft 18 kts 348°
2026-04-20 05:39 -33.93623 151.17545 28 ft 19 kts 348°
2026-04-20 05:39 -33.93488 151.17511 28 ft 20 kts 348°
2026-04-20 05:40 -33.93348 151.17500 28 ft 20 kts 354°
2026-04-20 05:40 -33.93210 151.17462 28 ft 20 kts 347°
2026-04-20 05:40 -33.93136 151.17444 28 ft 0 kts 348°
2026-04-20 05:42 -33.93136 151.17442 28 ft 0 kts 348°
2026-04-20 05:42 -33.93122 151.17439 28 ft 3 kts 348°
2026-04-20 05:42 -33.93093 151.17439 28 ft 5 kts 21°
2026-04-20 05:42 -33.93078 151.17493 28 ft 6 kts 79°
2026-04-20 05:43 -33.93040 151.17539 28 ft 9 kts 27°
2026-04-20 05:43 -33.93010 151.17607 28 ft 10 kts 96°
2026-04-20 05:43 -33.93029 151.17685 28 ft 9 kts 113°
2026-04-20 05:43 -33.93053 151.17755 28 ft 9 kts 108°
2026-04-20 05:44 -33.93067 151.17830 28 ft 8 kts 101°
2026-04-20 05:44 -33.93096 151.17865 28 ft 5 kts 166°
2026-04-20 05:44 -33.93127 151.17862 28 ft 3 kts 191°
2026-04-20 05:44 -33.93150 151.17857 28 ft 1 kts 191°
2026-04-20 05:45 -33.93153 151.17856 28 ft 0 kts 190°